www.pogodaiklimat.ru

Погода и климат >> Архив погоды >> Вьетнам >> Каобанг


ПОГОДА в Каобанге

  • Прогноз погоды в Каобанге
  • Монитор погоды в Каобанге

АРХИВ ПОГОДЫ в Каобанге

Время (UTC), дата Ветер
(напр.,м/с)
 
Видим.   Явления Облачность Т
(С)
Тd
(С)
f
(%)
Тe
(С)
Тes
(С)
Комфортность P
(гПа)
Po
(гПа)
Тmin
(С)
Tmax
(С)
R
(мм)
R24
(мм)
S
(см)
15 18.08 Ю 1 20 км 5/5 300 м
[Cu Sc]
+28.0 +25.7 87 +41 +41 опасность
перегрева
1003.2 975.9
18 18.08 штиль 0 20 км 8/5 300 м
[Cu Sc Ac lent]
+26.6 +25.1 91 +38 +38 очень
душно
1003.8 976.3
21 18.08 штиль 0 4000 м дымка 9/3 1500 м
[Sc Cs]
+25.6 +25.0 96 +36 +36 очень
душно
1003.1 975.6
00 19.08 штиль 0 4000 м дымка 10/10
[Cu Sc]
+27.0 +25.5 92 +40 +40 очень
душно
1003.8 976.5 +25.4
03 19.08 З 2 20 км 8/4 600 м
[Cu med, cong Cs]
+31.5 +26.0 73 +47 +56 опасность
перегрева
1003.5 976.6
06 19.08 Ю 3 20 км 5/5 600 м
[Cu med, cong]
+34.5 +26.1 62 +51 +59 опасность
перегрева
1001.2 974.5
09 19.08 С 3 10 км слаб. дождь 10/10 300 м
[Cu Sc]
+30.8 +27.2 81 +49 +49 опасность
перегрева
1000.4 973.3
12 19.08 штиль 0 20 км {ливн. осадки} 9/9 600 м
[Cb cap]
+28.9 +27.1 90 +46 +46 опасность
перегрева
1002.5 975.2 +35.0 0.0
15 19.08 штиль 0 20 км 3/3 300 м
[Cu hum]
+27.2 +25.7 92 +40 +40 очень
душно
1004.2 976.9
18 19.08 штиль 0 20 км 3/3 300 м
[Cu hum]
+25.8 +24.9 95 +37 +37 очень
душно
1004.8 977.3
21 19.08 штиль 0 4000 м дымка 9/9 300 м
[Cu Sc]
+25.4 +24.5 95 +36 +36 очень
душно
1004.2 976.7
00 20.08 штиль 0 4000 м дымка 6/6 300 м
[Cu Sc]
+26.0 +25.1 95 +37 +39 очень
душно
1004.6 977.1 +25.1
03 20.08 З 1 20 км 9/3 600 м
[Cu med, cong Cs]
+30.4 +26.2 78 +46 +57 опасность
перегрева
1004.5 977.4
06 20.08 ЮВ 3 20 км 9/5 600 м
[Cb cap Cs]
+34.5 +25.7 60 +49 +56 опасность
перегрева
1001.9 975.2
09 20.08 С 1 20 км {гроза, ливн. осадки} 9/3 600 м
[Cu med, cong Cs]
+27.6 +23.8 80 +38 +42 очень
душно
1003.0 975.7
12 20.08 З 1 20 км в посл. час ливневой дождь {гроза} 9/9 300 м
[Cb cap]
+26.4 +24.5 89 +37 +37 очень
душно
1003.2 976.0 +35.0 0.3
15 20.08 Ю 1 20 км 8/8 300 м
[Cu Sc]
+25.2 +24.1 94 +35 +35 очень
душно
1005.2 977.6
18 20.08 штиль 0 20 км 9/9 300 м
[Cu Sc]
+24.9 +24.0 95 +34 +34 очень
душно
1005.3 977.5
21 20.08 штиль 0 4000 м дымка 9/9 300 м
[Cu Sc]
+25.0 +24.1 95 +34 +34 очень
душно
1005.3 977.7
00 21.08 штиль 0 4000 м дымка 9/9
[Cu Sc]
+25.7 +24.7 94 +36 +37 очень
душно
1006.3 978.7 +24.6
03 21.08 штиль 0 20 км 9/9 600 м
[Cu Sc]
+29.6 +25.0 76 +42 +45 опасность
перегрева
1006.3 979.1
06 21.08 ЮВ 2 20 км 9/4 600 м
[Cu med, cong Cs]
+32.7 +24.9 64 +46 +56 опасность
перегрева
1003.8 976.9
09 21.08 ЮВ 3 20 км {гроза} 9/8 600 м
[Cb calv Ci fib]
+31.7 +23.8 63 +43 +44 опасность
перегрева
1002.6 975.7
12 21.08 ЮВ 1 20 км {гроза} 8/8
[Cu Sc]
+28.5 +24.0 77 +40 +40 очень
душно
1003.8 976.5 +33.6
15 21.08 СЗ 1 20 км ясно +26.3 +24.8 91 +37 +37 очень
душно
1006.3 978.7
18 21.08 З 2 20 км 8/8 1500 м
[Sc]
+25.8 +24.8 94 +37 +37 очень
душно
1006.0 978.4
21 21.08 штиль 0 20 км 10/10 300 м
[Cu Sc]
+25.4 +24.3 94 +35 +35 очень
душно
1005.7 978.1
00 22.08 ЮВ 2 20 км гроза без осадков {ливн. осадки} 10/10
[Cb cap]
+25.0 +23.3 90 +33 +33 очень
душно
1007.2 979.6 +24.8 3
03 22.08 штиль 0 20 км гроза без осадков {ливн. осадки} 10/10 300 м
[Cb cap]
+26.1 +23.6 86 +35 +35 очень
душно
1007.6 980.0
06 22.08 ЮЗ 1 20 км {гроза, ливн. осадки} 9/4 600 м
[Cu med, cong Cs]
+29.2 +23.2 70 +39 +51 опасность
солнечного
удара
1004.3 977.2 3
09 22.08 ЮВ 1 20 км 9/8 600 м
[Cb calv Ci fib]
+31.1 +25.1 70 +45 +46 опасность
перегрева
1003.8 976.9
12 22.08 З 1
{18}
20 км {гроза, ливн. осадки} 10/10 300 м
[Cu Sc]
+23.4 +22.5 95 +32 +32 очень
душно
1006.6 978.8 +31.4 35
15 22.08 З 1 20 км 10/10 300 м
[Cu Sc]
+23.6 +23.0 96 +31 +31 очень
душно
1008.1 981.2
18 22.08 штиль 0 20 км 10/10 300 м
[Cu Sc]
+23.4 +22.8 96 +33 +33 очень
душно
1008.8 981.0
21 22.08 штиль 0 20 км 9/9 300 м
[Cu Sc]
+23.2 +22.3 95 +32 +32 очень
душно
1008.4 980.6
00 23.08 штиль 0 20 км 9/9 300 м
[Cu Sc]
+23.6 +23.0 96 +31 +32 очень
душно
1009.8 982.0 +22.8
03 23.08 СЗ 2 20 км {ливн. осадки} 8/8 600 м
[Cu Sc]
+26.5 +23.7 85 +36 +40 очень
душно
1010.2 982.5
06 23.08 Ю 2 20 км {ливн. осадки} 8/8 600 м
[Cu med, cong]
+31.0 +24.4 68 +43 +47 опасность
перегрева
1007.0 980.0 5
09 23.08 З 1
{19}
20 км гроза без осадков {ливн. осадки} 8/8 300 м
[Cb cap]
+26.2 +22.9 82 +35 +36 очень
душно
1005.7 978.1
12 23.08 З 1
{19}
20 км зарница {гроза, ливн. осадки} 8/8 300 м
[Cb cap]
+25.1 +23.3 90 +34 +34 очень
душно
1007.6 980.0 +33.3 12
15 23.08 ЮЗ 1 20 км 5/5 1500 м
[Sc]
+24.1 +23.2 95 +32 +32 очень
душно
1009.4 981.6
18 23.08 ЮЗ 1 20 км 3/3 300 м
[Cu hum]
+24.0 +23.4 96 +32 +32 очень
душно
1008.6 980.8
21 23.08 штиль 0 500 м туман ?/? +23.6 +23.1 97 +31 +31 очень
душно
1007.5 979.7
00 24.08 штиль 0 4000 м дымка {туман} 9/9
[Cu Sc]
+24.2 +23.3 95 +32 +33 очень
душно
1008.1 980.3 +23.4
03 24.08 З 1 20 км 3/3 600 м
[Cu med, cong]
+27.7 +25.2 86 +40 +54 опасность
солнечного
удара
1007.6 980.2
06 24.08 СЗ 1 20 км гроза без осадков 8/8 300 м
[Cb cap]
+32.8 +24.9 63 +46 +51 опасность
перегрева
1004.3 977.4
09 24.08 З 2 20 км гроза без осадков {ливн. осадки} 9/9 300 м
[Cb cap]
+26.4 +22.7 80 +35 +35 очень
душно
1004.1 976.6
12 24.08 штиль 0 10 км гроза, ливневой дождь 10/10 300 м
[Cb cap]
+25.8 +23.6 88 +35 +35 очень
душно
1005.8 978.2 +33.0 0.0
15 24.08 штиль 0 20 км {гроза, ливн. осадки} 5/5 1500 м
[Sc]
+24.7 +23.6 94 +34 +34 очень
душно
1006.7 978.9
18 24.08 штиль 0 4000 м дымка {гроза, ливн. осадки} 10/10 300 м
[Cu Sc]
+24.0 +23.2 95 +32 +32 очень
душно
1005.8 978.0 0.0
21 24.08 штиль 0 4000 м дымка 10/10 300 м
[Cu Sc]
+23.9 +23.0 95 +32 +32 очень
душно
1005.4 977.6
00 25.08 штиль 0 4000 м дымка 9/9
[Cu Sc]
+24.0 +22.9 94 +32 +32 очень
душно
1007.2 979.4 +23.6 0.0
03 25.08 С 1 20 км 3/3 600 м
[Cu med, cong]
+29.2 +23.8 73 +40 +54 опасность
солнечного
удара
1006.1 978.9
06 25.08 Ю 1 20 км 4/4 600 м
[Cu med, cong]
+34.1 +24.9 59 +48 +61 опасность
перегрева
1002.7 976.0 0.0
09 25.08 В 3 20 км гроза без осадков 9/4 600 м
[Cb cap Cs]
+32.9 +24.8 63 +46 +49 опасность
перегрева
1000.9 974.0
12 25.08 штиль 0 20 км {гроза} 9/4
[Sc Cs]
+29.3 +26.5 85 +45 +45 опасность
перегрева
1001.6 974.5 +35.7 0.0

 

Местоположение метеостанции Каобанг (Вьетнам): широта 22.67 долгота 106.25 высота над уровнем моря 243 м.

В архиве по умолчанию представлена погода в Каобанге за последнюю неделю. Архивные данные за месяц целиком и за предыдущие месяцы, начиная с января 2011 года, Вы можете получить, выбрав интересующий диапазон дат из раскрывающегося списка и нажав кнопку "Ввод!".


*Определитесь, кто Вы:
робот инопланетянин человек

Внимание! Время в таблицах - всемирное. Для получения местного времени необходимо прибавить поправку, которая равна 7 ч.

Смотрите также архив погоды в соседних городах и на ближайших метеорологических станциях:

Погода в Лончжоу (Гуанси-Чжуанский автономный район, Китай) (61 км)
Погода в Баккане (Вьетнам) (72 км)
Погода в Напо (Гуанси-Чжуанский автономный район, Китай) (77 км)
Погода в Лангсоне (Вьетнам) (107 км)
Погода в Байсэ (Гуанси-Чжуанский автономный район, Китай) (141 км)
Погода в Ханое (Вьетнам) (188 км)
Погода в Хайфоне (Вьетнам) (195 км)
Погода в Гуаннане (Юньнань, Китай) (198 км)
Погода в Наньнине (Гуанси-Чжуанский автономный район, Китай) (201 км)
Погода в Пхульене (Вьетнам) (212 км)

Пояснения к столбцам:

Ветер - указаны скорость ветра в м/с - средняя за 10 мин, порывы в срок и между сроками (в фигурных скобках) и направление, откуда дует ветер: С - северный, СВ - северо-восточный, В - восточный, ЮВ - юго-восточный, Ю - южный, ЮЗ - юго-западный, З - западный, СЗ - северо-западный.
Видимость - горизонтальная дальность видимости в метрах или километрах. При видимости от 1 до 10 км при отсутствии осадков обычно наблюдается дымка, при ухудшении видимости до 1 км и менее - туман. В сухую погоду видимость может ухудшаться дымом, пылью или мглою.
Явления - указаны атмосферные явления, наблюдавшиеся в срок или в последний час перед сроком; фигурными скобками обозначены явления, наблюдавшиеся между сроками (за 1-3 часа до срока); квадратными скобками обозначены град или гололедные отложения с указанием их диаметра в мм.
Облачность - указаны через наклонную черту общая и нижняя облачность в баллах и высота нижней границы облаков в метрах; квадратными скобками обозначены формы облаков: Ci - перистые, Cs - перисто-слоистые, Cc - перисто-кучевые, Ac - высококучевые, As - высокослоистые, Sc - слоисто-кучевые, Ns - слоисто-дождевые, Cu - кучевые, Cb - кучево-дождевые. Подробнее классификацию облаков см. в Атласе облаков (PDF).
T - Температура воздуха - температура, измеренная на высоте 2 м над землей.
Td - Температура точки росы - температура, при понижении до которой содержащийся в воздухе водяной пар достигнет насыщения.
f - Относительная влажность воздуха - влажноcть воздуха, измеренная на высоте 2 м над землей.
Te - Эффективная температура - температура, которую ощущает одетый по сезону человек в тени. Характеристика душности погоды. При расчете учитывается влияние влажности воздуха и скорости ветра на теплоощущения человека.
Tes - Эффективная температура на солнце - температура, которую ощущает человек, с поправкой на солнечный нагрев. Характеристика знойности погоды. Зависит от высоты солнца над горизонтом, облачности и скорости ветра. Ночью, в пасмурную погоду, а также при ветре 12 м/с и более поправка равна нулю.
P - Атмосферное давление - приведенное к уровню моря атмосферное давление.
Po - Атмосферное давление - измеренное на уровне метеостанции атмосферное давление.
Tmin - Минимальная температура - минимум температуры воздуха на высоте 2 м над землей.
Tmax - Максимальная температура - максимум температуры воздуха на высоте 2 м над землей.
R - Количество осадков - Количество выпавших осадков за период времени, мм. При наведении курсора мыши на число - период времени, за который выпало указанное количество осадков.
R24 - Количество осадков - Количество выпавших осадков за 24 часа, мм.
S - Снежный покров - Высота снежного покрова, см. При наведении курсора мыши на число - состояние снежного покрова и степень покрытия местности в баллах.